EN

Hourly Weather La Garde

Today, 28 July, Wednesday

Time Temperature Precipitation Wind Pressure Humidity
00:00 +24°C° 0 mm 2 mps 755 mmHg 58%
01:00 +23°C° 0 mm 2 mps 755 mmHg 59%
02:00 +23°C° 0 mm 2 mps 755 mmHg 60%
03:00 +23°C° 0 mm 2 mps 755 mmHg 61%
04:00 +24°C° 0 mm 2 mps 755 mmHg 59%
05:00 +25°C° 0 mm 2 mps 755 mmHg 56%
06:00 +25°C° 0 mm 2 mps 755 mmHg 56%
07:00 +27°C° 0 mm 2 mps 755 mmHg 49%
08:00 +29°C° 0 mm 2 mps 755 mmHg 42%
09:00 +31°C° 0 mm 3 mps 755 mmHg 36%
10:00 +33°C° 0 mm 3 mps 755 mmHg 34%
11:00 +34°C° 0 mm 3 mps 755 mmHg 32%
12:00 +35°C° 0 mm 4 mps 755 mmHg 30%
13:00 +35°C° 0 mm 4 mps 755 mmHg 31%
14:00 +35°C° 0 mm 5 mps 755 mmHg 32%
15:00 +35°C° 0 mm 5 mps 755 mmHg 32%
16:00 +34°C° 0 mm 5 mps 755 mmHg 35%
17:00 +33°C° 0 mm 5 mps 754 mmHg 37%
18:00 +32°C° 0 mm 5 mps 754 mmHg 40%
19:00 +30°C° 0 mm 5 mps 754 mmHg 45%
20:00 +28°C° 0 mm 4 mps 755 mmHg 50%
21:00 +27°C° 0 mm 4 mps 755 mmHg 55%
22:00 +26°C° 0 mm 4 mps 755 mmHg 57%
23:00 +26°C° 0 mm 4 mps 755 mmHg 59%

Tomorrow, 29 July, Thursday

Time Temperature Precipitation Wind Pressure Humidity
00:00 +25°C° 0 mm 3 mps 755 mmHg 62%
01:00 +25°C° 0 mm 3 mps 755 mmHg 62%
02:00 +25°C° 0 mm 3 mps 754 mmHg 63%
03:00 +24°C° 0 mm 2 mps 754 mmHg 64%
04:00 +25°C° 0 mm 2 mps 755 mmHg 60%
05:00 +26°C° 0 mm 2 mps 755 mmHg 57%
06:00 +27°C° 0 mm 2 mps 755 mmHg 53%
07:00 +29°C° 0 mm 2 mps 755 mmHg 47%
08:00 +31°C° 0 mm 3 mps 755 mmHg 42%
09:00 +35°C° 0 mm 3 mps 755 mmHg 36%
10:00 +35°C° 0 mm 3 mps 755 mmHg 37%
11:00 +35°C° 0 mm 3 mps 755 mmHg 38%
12:00 +35°C° 0 mm 4 mps 755 mmHg 39%
13:00 +35°C° 0 mm 3 mps 755 mmHg 40%
14:00 +35°C° 0 mm 3 mps 754 mmHg 41%
15:00 +34°C° 0 mm 3 mps 754 mmHg 41%
16:00 +33°C° 0 mm 3 mps 754 mmHg 44%
17:00 +31°C° 0 mm 2 mps 754 mmHg 46%
18:00 +31°C° 0 mm 2 mps 754 mmHg 48%
19:00 +29°C° 0 mm 2 mps 754 mmHg 53%
20:00 +27°C° 0 mm 2 mps 754 mmHg 57%
21:00 +26°C° 0 mm 2 mps 754 mmHg 62%
22:00 +26°C° 0 mm 2 mps 754 mmHg 62%
23:00 +25°C° 0 mm 2 mps 754 mmHg 62%

Day after tomorrow, 30 July, Friday

Time Temperature Precipitation Wind Pressure Humidity
00:00 +25°C° 0 mm 2 mps 754 mmHg 63%
01:00 +25°C° 0 mm 2 mps 754 mmHg 63%
02:00 +24°C° 0 mm 2 mps 754 mmHg 64%
03:00 +24°C° 0 mm 2 mps 753 mmHg 65%
04:00 +25°C° 0 mm 1 mps 753 mmHg 61%
05:00 +26°C° 0 mm 1 mps 753 mmHg 58%
06:00 +27°C° 0 mm 1 mps 753 mmHg 54%
07:00 +29°C° 0 mm 1 mps 754 mmHg 49%
08:00 +31°C° 0 mm 2 mps 754 mmHg 44%
09:00 +32°C° 0 mm 2 mps 754 mmHg 39%
10:00 +34°C° 0 mm 3 mps 754 mmHg 38%
11:00 +34°C° 0 mm 3 mps 753 mmHg 37%
12:00 +35°C° 0 mm 4 mps 753 mmHg 36%
13:00 +34°C° 0 mm 4 mps 753 mmHg 39%
14:00 +34°C° 0 mm 4 mps 753 mmHg 41%
15:00 +33°C° 0 mm 4 mps 753 mmHg 43%
16:00 +32°C° 0 mm 4 mps 753 mmHg 49%
17:00 +30°C° 0 mm 4 mps 752 mmHg 54%
18:00 +29°C° 0 mm 3 mps 752 mmHg 59%
19:00 +28°C° 0 mm 3 mps 752 mmHg 65%
20:00 +26°C° 0 mm 3 mps 752 mmHg 71%
21:00 +25°C° 0 mm 3 mps 752 mmHg 77%
22:00 +25°C° 0 mm 3 mps 752 mmHg 77%
23:00 +25°C° 0 mm 3 mps 752 mmHg 77%

31 July, Saturday

Time Temperature Precipitation Wind Pressure Humidity
00:00 +25°C° 0 mm 3 mps 752 mmHg 77%
01:00 +25°C° 0 mm 3 mps 752 mmHg 78%
02:00 +25°C° 0 mm 3 mps 751 mmHg 78%
03:00 +24°C° 0 mm 3 mps 751 mmHg 79%
04:00 +25°C° 0 mm 3 mps 751 mmHg 75%
05:00 +26°C° 0 mm 2 mps 751 mmHg 71%
06:00 +27°C° 0 mm 2 mps 751 mmHg 66%
07:00 +29°C° 0 mm 3 mps 751 mmHg 57%
08:00 +33°C° 0 mm 3 mps 751 mmHg 47%
09:00 +35°C° 0 mm 3 mps 751 mmHg 38%
10:00 +36°C° 0 mm 3 mps 751 mmHg 36%
11:00 +36°C° 0 mm 4 mps 751 mmHg 34%
12:00 +37°C° 0 mm 4 mps 750 mmHg 32%
13:00 +36°C° 0 mm 5 mps 750 mmHg 31%
14:00 +36°C° 0 mm 6 mps 750 mmHg 30%
15:00 +36°C° 0 mm 6 mps 750 mmHg 30%
16:00 +35°C° 0 mm 6 mps 750 mmHg 32%
17:00 +34°C° 0 mm 6 mps 749 mmHg 35%
18:00 +32°C° 0 mm 6 mps 749 mmHg 38%
19:00 +30°C° 0 mm 7 mps 750 mmHg 43%
20:00 +28°C° 0 mm 7 mps 750 mmHg 48%
21:00 +26°C° 0 mm 8 mps 750 mmHg 53%
22:00 +24°C° 0 mm 8 mps 750 mmHg 56%
23:00 +24°C° 0 mm 7 mps 750 mmHg 58%

1 August, Sunday

Time Temperature Precipitation Wind Pressure Humidity
00:00 +23°C° 0 mm 7 mps 750 mmHg 60%
01:00 +22°C° 0 mm 8 mps 750 mmHg 64%
02:00 +21°C° 0 mm 8 mps 750 mmHg 67%
03:00 +20°C° 0 mm 8 mps 750 mmHg 70%
04:00 +21°C° 0 mm 8 mps 750 mmHg 67%
05:00 +21°C° 0 mm 8 mps 750 mmHg 63%
06:00 +21°C° 0 mm 8 mps 750 mmHg 60%
07:00 +24°C° 0 mm 9 mps 751 mmHg 51%
08:00 +27°C° 0 mm 9 mps 751 mmHg 43%
09:00 +29°C° 0 mm 10 mps 751 mmHg 34%
10:00 +31°C° 0 mm 10 mps 751 mmHg 31%
11:00 +32°C° 0 mm 11 mps 751 mmHg 27%
12:00 +33°C° 0 mm 11 mps 751 mmHg 24%
13:00 +33°C° 0 mm 11 mps 751 mmHg 25%
14:00 +33°C° 0 mm 11 mps 752 mmHg 26%
15:00 +32°C° 0 mm 11 mps 752 mmHg 27%
16:00 +32°C° 0 mm 10 mps 752 mmHg 30%
17:00 +31°C° 0 mm 10 mps 752 mmHg 32%
18:00 +29°C° 0 mm 9 mps 752 mmHg 35%
19:00 +28°C° 0 mm 8 mps 752 mmHg 35%
20:00 +27°C° 0 mm 8 mps 753 mmHg 36%
21:00 +24°C° 0 mm 7 mps 753 mmHg 37%
22:00 +24°C° 0 mm 7 mps 753 mmHg 39%
23:00 +23°C° 0 mm 7 mps 753 mmHg 41%

2 August, Monday

Time Temperature Precipitation Wind Pressure Humidity
00:00 +22°C° 0 mm 7 mps 753 mmHg 43%
01:00 +21°C° 0 mm 7 mps 753 mmHg 47%
02:00 +20°C° 0 mm 7 mps 753 mmHg 52%
03:00 +18°C° 0 mm 7 mps 754 mmHg 56%
04:00 +20°C° 0 mm 7 mps 754 mmHg 55%
05:00 +20°C° 0 mm 7 mps 754 mmHg 54%
06:00 +21°C° 0 mm 7 mps 754 mmHg 53%
07:00 +23°C° 0 mm 7 mps 754 mmHg 46%
08:00 +27°C° 0 mm 8 mps 754 mmHg 39%
09:00 +29°C° 0 mm 8 mps 755 mmHg 32%
10:00 +31°C° 0 mm 8 mps 754 mmHg 29%
11:00 +32°C° 0 mm 8 mps 754 mmHg 26%
12:00 +34°C° 0 mm 8 mps 754 mmHg 23%
13:00 +34°C° 0 mm 8 mps 754 mmHg 25%
14:00 +33°C° 0 mm 8 mps 754 mmHg 27%
15:00 +33°C° 0 mm 7 mps 754 mmHg 28%
16:00 +32°C° 0 mm 7 mps 754 mmHg 33%
17:00 +30°C° 0 mm 6 mps 754 mmHg 37%
18:00 +28°C° 0 mm 5 mps 754 mmHg 41%
19:00 +27°C° 0 mm 5 mps 754 mmHg 45%
20:00 +26°C° 0 mm 4 mps 754 mmHg 49%
21:00 +24°C° 0 mm 3 mps 754 mmHg 53%
22:00 +24°C° 0 mm 3 mps 755 mmHg 55%
23:00 +22°C° 0 mm 3 mps 755 mmHg 57%
Show more